Location: Arborea
(39.7744°N, 8.5819°E)
Time: 00:11:24
(UTC+00:00)

Cosmos 1000 Rocket - Pass Details

Date: 09 October 2023
Orbit: 952 x 993 km, 82.9° (Epoch: 03 December)

Event Time Altitude Azimuth Distance (km) Brightness Sun altitude
Exits shadow 21:01:18 20° 304° (NW) 2,111 6.7 -45.5°
Drops below altitude 10° 21:04:51 10° 338° (NNW) 2,762 7.3 -46.0°
Sets 21:08:06 0° 354° (N) 3,712 8.0 -46.5°
